Location: Lewisville
(33.0462°N, 96.9942°W)
Time: 11:54:44
(UTC-05:00)

Tiangong - Visible Passes

Search period start: 30 September 2022 00:00
Search period end: 10 October 2022 00:00
Orbit: 381 x 385 km, 41.5° (Epoch: 30 September)

Date Brightness Start Highest point End Pass type
(mag) Time Alt. Az. Time Alt. Az. Time Alt. Az.
30 Sep 1.4 05:00:48 10° E 05:00:48 10° E 05:00:49 10° E visible
30 Sep -0.7 06:33:01 17° WSW 06:34:26 23° SW 06:37:01 10° SSE visible
01 Oct 0.2 05:36:30 18° SE 05:36:30 18° SE 05:37:32 10° SE visible
04 Oct 0.1 20:39:32 10° SSW 20:40:29 16° SSW 20:40:29 16° SSW visible
05 Oct 0.0 19:40:38 10° S 19:42:14 13° SE 19:43:45 10° ESE visible
05 Oct 1.0 21:15:35 10° WSW 21:15:59 13° WSW 21:15:59 13° WSW visible
06 Oct -2.0 20:15:29 10° SW 20:18:33 53° SSE 20:19:06 45° ESE visible
07 Oct -0.4 20:52:08 10° W 20:54:17 33° WNW 20:54:17 33° WNW visible
08 Oct -2.1 19:51:43 10° WSW 19:54:51 76° NNW 19:57:07 17° ENE visible
09 Oct -0.6 20:28:45 10° WNW 20:31:31 28° NNW 20:32:02 26° N visible
